Fort Dix, NJ

11:56 PM EST on February 06, 2016 (GMT -0500)
McGuire Air Force Base

Weather History for KWRI - September, 2014

Change the Weather History Date:

Thursday, September 4, 2014

  Actual Average Record
Temperature  
Mean Temperature 73 °F -  
Max Temperature 87 °F 79 °F 94 °F (2008)
Min Temperature 60 °F 60 °F 53 °F (1997)
Cooling Degree Days 8    
Growing Degree Days 23 (Base 50)    
Moisture  
Dew Point 63 °F    
Average Humidity 81    
Maximum Humidity 100    
Minimum Humidity 48    
Precipitation  
Precipitation 0.00 in - - ()
Sea Level Pressure  
Sea Level Pressure 30.14 in    
Wind  
Wind Speed 2 mph (South)    
Max Wind Speed 8 mph    
Max Gust Speed -    
Visibility 9 miles    
Events      
Averages and records for this station are not official NWS values.
T = Trace of Precipitation, MM = Missing Value Source: NWS Daily Summary

Daily Weather History Graph

Daily Weather History Graph

Search for Another Location

Airport or City:

Trip Planner

Search our weather history database for the weather conditions in past years. The results will help you decide how hot, cold, wet, or windy it might be!

Date:

Astronomy

Sep. 04, 2014 Rise Set
Actual Time 6:28 AM EDT 7:25 PM EDT
Civil Twilight 6:01 AM EDT 7:52 PM EDT
Nautical Twilight 5:28 AM EDT 8:25 PM EDT
Astronomical Twilight 4:54 AM EDT 8:59 PM EDT
Moon 4:00 PM EDT (9/4) 1:17 AM EDT (9/4)
Length of Visible Light 13h 51m
Length of Day
12h 56m
Waxing Gibbous, 74% of the Moon is Illuminated
Sep 4
Waxing Gibbous
Sep 8
Full
Sep 15
Last Quarter
Sep 24
New
Oct 1
First Quarter

Hourly Weather History & Observations

Time (EDT) Temp. Heat Index Dew Point Humidity Pressure Visibility Wind Dir Wind Speed Gust Speed Precip Events Conditions
12:58 AM 63.9 °F - 62.1 °F 94% 30.11 in 10.0 mi Calm Calm - N/A   Clear
1:18 AM 64.4 °F - 62.6 °F 94% 30.12 in 2.5 mi Calm Calm - N/A   Clear
1:23 AM 64.4 °F - 62.6 °F 94% 30.11 in 2.0 mi Calm Calm - N/A   Clear
1:28 AM 64.4 °F - 62.6 °F 94% 30.11 in 8.0 mi Calm Calm - N/A   Clear
1:33 AM 64.4 °F - 62.6 °F 94% 30.12 in 10.0 mi Calm Calm - N/A   Clear
1:43 AM 64.4 °F - 62.6 °F 94% 30.11 in 9.0 mi Calm Calm - N/A   Clear
1:53 AM 64.4 °F - 62.6 °F 94% 30.11 in 10.0 mi Variable 1.2 mph - N/A   Clear
1:58 AM 64.8 °F - 62.2 °F 92% 30.12 in 10.0 mi ENE 1.2 mph - N/A   Clear
2:58 AM 62.1 °F - 61.9 °F 99% 30.13 in 10.0 mi NNE 2.3 mph - N/A   Clear
3:58 AM 60.8 °F - 60.4 °F 99% 30.13 in 10.0 mi South 2.3 mph - N/A   Clear
4:33 AM 62.6 °F - 62.6 °F 100% 30.12 in 6.0 mi Calm Calm - N/A   Clear
4:43 AM 62.6 °F - 62.6 °F 100% 30.13 in 10.0 mi Calm Calm - N/A   Clear
4:58 AM 62.1 °F - 61.9 °F 99% 30.14 in 10.0 mi Calm Calm - N/A   Clear
5:58 AM 60.4 °F - 60.3 °F 99% 30.16 in 8.0 mi Calm Calm - N/A   Clear
6:08 AM 60.8 °F - 60.8 °F 100% 30.15 in 10.0 mi East 1.2 mph - N/A   Clear
6:58 AM 61.0 °F - 60.6 °F 99% 30.19 in 10.0 mi Calm Calm - N/A   Clear
7:58 AM 65.1 °F - 63.5 °F 94% 30.19 in 10.0 mi East 2.3 mph - N/A   Clear
8:58 AM 71.8 °F - 64.9 °F 79% 30.18 in 10.0 mi Variable 2.3 mph - N/A   Clear
9:58 AM 77.4 °F - 65.3 °F 66% 30.18 in 10.0 mi Calm Calm - 0.00 in   Clear
10:58 AM 81.0 °F 82.9 °F 65.3 °F 59% 30.17 in 10.0 mi SE 3.5 mph - N/A   Clear
11:58 AM 82.9 °F 83.8 °F 62.6 °F 50% 30.16 in 10.0 mi SW 5.8 mph - N/A   Scattered Clouds
12:58 PM 84.4 °F 85.4 °F 63.3 °F 49% 30.15 in 10.0 mi SSW 8.1 mph - N/A   Clear
1:58 PM 85.8 °F 87.1 °F 63.9 °F 48% 30.15 in 10.0 mi Variable 5.8 mph - N/A   Clear
2:58 PM 86.0 °F 87.9 °F 65.1 °F 50% 30.14 in 10.0 mi SW 6.9 mph - N/A   Clear
3:58 PM 84.2 °F 86.6 °F 66.2 °F 55% 30.13 in 10.0 mi South 8.1 mph - N/A   Mostly Cloudy
4:58 PM 83.5 °F 85.3 °F 65.5 °F 54% 30.11 in 10.0 mi South 8.1 mph - N/A   Partly Cloudy
5:58 PM 81.9 °F 83.2 °F 63.7 °F 54% 30.12 in 10.0 mi South 6.9 mph - N/A   Clear
6:58 PM 77.9 °F - 63.1 °F 60% 30.14 in 10.0 mi South 6.9 mph - N/A   Clear
7:58 PM 73.6 °F - 63.1 °F 70% 30.15 in 10.0 mi South 3.5 mph - N/A   Clear
8:58 PM 70.7 °F - 63.9 °F 79% 30.17 in 10.0 mi South 5.8 mph - N/A   Clear
9:23 PM 69.8 °F - 64.4 °F 83% 30.16 in 8.0 mi South 5.8 mph - N/A   Clear
9:33 PM 69.8 °F - 64.4 °F 83% 30.15 in 10.0 mi South 5.8 mph - N/A   Clear
9:58 PM 70.2 °F - 65.5 °F 85% 30.16 in 10.0 mi South 4.6 mph - N/A   Clear
10:58 PM 68.2 °F - 65.8 °F 92% 30.15 in 10.0 mi Variable 1.2 mph - N/A   Clear
11:58 PM 67.5 °F - 66.6 °F 97% 30.15 in 10.0 mi Calm Calm - N/A   Clear